Mexico City Airport, Mexico

12:54 AM CDT on July 27, 2017 (GMT -0500)
Lic Benito Juarez International

Weather History for MMMX - December, 2011

Change the Weather History Date:

Saturday, December 24, 2011

  Actual Average Record
Temperature  
Mean Temperature 58 °F -  
Max Temperature 75 °F 68 °F 77 °F (2012)
Min Temperature 41 °F 40 °F 33 °F (2003)
Degree Days  
Heating Degree Days 7    
Growing Degree Days 8 (Base 50)    
Moisture  
Dew Point 35 °F    
Average Humidity 47    
Maximum Humidity 81    
Minimum Humidity 14    
Precipitation  
Precipitation 0.00 in - - ()
Sea Level Pressure  
Sea Level Pressure 30.25 in    
Wind  
Wind Speed 3 mph ()    
Max Wind Speed 15 mph    
Max Gust Speed -    
Visibility 10.2 miles    
Events      
Averages and records for this station are not official NWS values.
T = Trace of Precipitation, MM = Missing Value Source: Averaged Metar Reports

Daily Weather History Graph

Daily Weather History Graph

Search for Another Location

Airport or City:

Trip Planner

Search our weather history database for the weather conditions in past years. The results will help you decide how hot, cold, wet, or windy it might be!

Date:

Astronomy

Dec. 24, 2011 Rise Set
Actual Time 7:07 AM CST 6:04 PM CST
Civil Twilight 6:43 AM CST 6:28 PM CST
Nautical Twilight 6:15 AM CST 6:56 PM CST
Astronomical Twilight 5:48 AM CST 7:23 PM CST
Moon 6:56 AM CST (12/24) 6:17 PM CST (12/24)
Length of Visible Light 11h 45m
Length of Day
10h 57m
New Moon, 0% of the Moon is Illuminated
Dec 24
New Moon
Dec 24
New
Jan 1
First Quarter
Jan 9
Full
Jan 16
Last Quarter

Hourly Weather History & Observations

Time (CST) Temp. Windchill Dew Point Humidity Pressure Visibility Wind Dir Wind Speed Gust Speed Precip Events Conditions
12:45 AM 53.6 °F - 37.4 °F 54% 30.34 in 12.0 mi Calm Calm - N/A   Clear
1:44 AM 50.0 °F - 37.4 °F 62% 30.34 in 12.0 mi Calm Calm - N/A   Clear
1:46 AM 50.0 °F - 37.4 °F 62% 30.34 in 12.0 mi Calm Calm - N/A   Clear
2:45 AM 48.2 °F - 37.4 °F 66% 29.87 in 12.0 mi Calm Calm - N/A   Clear
3:45 AM 44.6 °F - 35.6 °F 71% 30.33 in 12.0 mi Calm Calm - N/A   Clear
3:46 AM 44.6 °F - 35.6 °F 71% 30.33 in 12.0 mi Calm Calm - N/A   Clear
4:45 AM 42.8 °F 41.1 °F 32.0 °F 66% 30.33 in 12.0 mi ENE 3.5 mph - N/A   Clear
5:51 AM 42.8 °F 37.5 °F 35.6 °F 76% 29.93 in 12.0 mi ENE 9.2 mph - N/A   Clear
6:20 AM 41.0 °F 38.0 °F 33.8 °F 76% 30.35 in 12.0 mi East 4.6 mph - N/A   Clear
6:45 AM 41.0 °F 38.0 °F 35.6 °F 81% 30.35 in 12.0 mi NE 4.6 mph - N/A   Clear
7:19 AM 42.8 °F - 35.6 °F 76% 30.37 in 12.0 mi Calm Calm - N/A   Clear
7:49 AM 46.4 °F - 35.6 °F 66% 30.39 in 12.0 mi Calm Calm - N/A   Clear
8:18 AM 50.0 °F - 37.4 °F 62% 30.40 in 10.0 mi Calm Calm - N/A   Clear
8:19 AM 50.0 °F - 37.4 °F 62% 30.40 in 10.0 mi Calm Calm - N/A   Clear
8:47 AM 53.6 °F - 39.2 °F 58% 30.41 in 10.0 mi Calm Calm - N/A   Clear
8:52 AM 53.6 °F - 37.4 °F 54% 29.98 in 10.0 mi Calm Calm - N/A   Clear
9:18 AM 57.2 °F - 39.2 °F 51% 30.42 in 10.0 mi Calm Calm - N/A   Clear
9:48 AM 59.0 °F - 39.2 °F 48% 30.42 in 8.0 mi ESE 3.5 mph - N/A   Clear
10:45 AM 62.6 °F - 39.2 °F 42% 30.41 in 6.0 mi East 3.5 mph - N/A   Clear
10:47 AM 62.6 °F - 39.2 °F 42% 30.41 in 6.0 mi East 3.5 mph - N/A   Clear
11:46 AM 66.2 °F - 35.6 °F 32% 30.38 in 6.0 mi SSE 3.5 mph - N/A   Clear
11:48 AM 66.2 °F - 35.6 °F 32% 29.93 in 6.0 mi SSE 3.5 mph - N/A   Clear
12:43 PM 69.8 °F - 30.2 °F 23% 30.34 in 6.0 mi SSE 3.5 mph - N/A   Clear
12:45 PM 71.6 °F - 28.4 °F 20% 30.33 in 6.0 mi SSE 3.5 mph - N/A   Clear
1:46 PM 73.4 °F - 21.2 °F 14% 30.28 in 6.0 mi SSE 4.6 mph - N/A   Clear
2:48 PM 73.4 °F - 23.0 °F 15% 29.81 in 6.0 mi WSW 4.6 mph - N/A   Scattered Clouds
3:48 PM 75.2 °F - 24.8 °F 15% 30.25 in 10.0 mi SSE 4.6 mph - N/A   Scattered Clouds
4:54 PM 73.4 °F - 33.8 °F 23% 30.26 in 10.0 mi SE 15.0 mph - N/A   Scattered Clouds
5:45 PM 69.8 °F - 32.0 °F 25% 30.27 in 12.0 mi SSE 13.8 mph - N/A   Scattered Clouds
5:49 PM 69.8 °F - 32.0 °F 25% 29.91 in 12.0 mi SSE 13.8 mph - N/A   Scattered Clouds
6:39 PM 66.2 °F - 35.6 °F 32% 30.29 in 12.0 mi South 10.4 mph - N/A   Scattered Clouds
6:42 PM 66.2 °F - 35.6 °F 32% 30.29 in 12.0 mi South 10.4 mph - N/A   Scattered Clouds
7:41 PM 64.4 °F - 35.6 °F 34% 30.31 in 12.0 mi South 6.9 mph - N/A   Clear
8:43 PM 62.6 °F - 33.8 °F 34% 29.91 in 12.0 mi Calm Calm - N/A   Clear
9:45 PM 60.8 °F - 39.2 °F 45% 30.35 in 12.0 mi SSE 5.8 mph - N/A   Clear
10:51 PM 59.0 °F - 35.6 °F 42% 30.37 in 12.0 mi SW 6.9 mph - N/A   Clear
11:45 PM 57.2 °F - 37.4 °F 48% 29.89 in 12.0 mi SW 3.5 mph - N/A   Clear